Location: Bletchingley
(51.2333°N, 0.1000°W)
Time: 17:30:10
(UTC+00:00)

NOSS 3-2 (C) - Pass Details

Date: 18 September 2020
Orbit: 795 x 1418 km, 63.4° (Epoch: 25 October)

Event Time Altitude Azimuth Distance (km) Brightness Sun altitude
Rises 18:41:37 0° 310° (NW) 3,794 7.8 -6.2°
Reaches altitude 10° 18:44:13 10° 316° (NW) 2,927 6.9 -6.6°
Maximum altitude 18:51:02 48° 30° (NNE) 1,527 4.4 -7.7°
Enters shadow 18:58:45 10° 104° (ESE) 3,318 5.6 -8.9°
